Change the Weather History Date:

Sunday, March 2, 2014

  Actual Average (KTVL) Record (KTVL)
Temperature  
Mean Temperature 29 °F 33 °F  
Max Temperature 41 °F 46 °F 59 °F (2013)
Min Temperature 17 °F 20 °F -10 °F (1971)
Degree Days  
Heating Degree Days 36 32  
Month to date heating degree days 64  
Since 1 July heating degree days 5301  
Cooling Degree Days 0 0  
Month to date cooling degree days 0  
Year to date cooling degree days 0  
Moisture  
Dew Point 22 °F    
Average Humidity 69    
Maximum Humidity 89    
Minimum Humidity 55    
Precipitation  
Precipitation 0.00 in - 1.80 in (1962)
Month to date precipitation  
Year to date precipitation  
Sea Level Pressure  
Sea Level Pressure 30.01 in    
Wind  
Wind Speed 5 mph (SW)    
Max Wind Speed 20 mph    
Max Gust Speed 25 mph    
Visibility 10 miles    
Events      
T = Trace of Precipitation, MM = Missing Value Source: NWS Daily Summary

Daily Weather History Graph

Daily Weather History Graph

Search for Another Location

Airport or City:

Trip Planner

Search our weather history database for the weather conditions in past years. The results will help you decide how hot, cold, wet, or windy it might be!

Date:

Astronomy

Mar. 02, 2014 Rise Set
Actual Time 6:28 AM PST 5:52 PM PST
Civil Twilight 6:01 AM PST 6:18 PM PST
Nautical Twilight 5:31 AM PST 6:49 PM PST
Astronomical Twilight 5:00 AM PST 7:20 PM PST
Moon 7:04 AM PST (3/2) 7:52 PM PST (3/2)
Length of Visible Light 12h 16m
Length of Day
11h 23m
Waxing Crescent, 3% of the Moon is Illuminated
Mar 2
Waxing Crescent
Mar 8
First Quarter
Mar 16
Full
Mar 23
Last Quarter
Mar 30
New

Hourly Weather History & Observations

Time (PST) Temp. Windchill Dew Point Humidity Pressure Visibility Wind Dir Wind Speed Gust Speed Precip Events Conditions
12:52 AM 21.0 °F - 16.0 °F 81% 29.91 in 10.0 mi Calm Calm - N/A   Clear
1:52 AM 19.9 °F - 16.0 °F 85% 29.94 in 10.0 mi Calm Calm - N/A   Clear
2:52 AM 19.0 °F - 14.0 °F 81% 29.94 in - Calm Calm - N/A   Clear
3:52 AM 17.1 °F - 12.0 °F 81% 29.96 in - Calm Calm - N/A   Clear
4:52 AM 17.1 °F - 12.9 °F 84% 29.95 in - Calm Calm - N/A   Clear
5:52 AM 17.1 °F 11.7 °F 12.9 °F 84% 29.96 in - Variable 3.5 mph - N/A   Clear
6:52 AM 18.0 °F 12.7 °F 14.0 °F 84% 29.98 in - Variable 3.5 mph - N/A   Clear
7:52 AM 19.0 °F - 16.0 °F 88% 30.01 in - Calm Calm - N/A   Clear
8:52 AM 21.9 °F 17.2 °F 19.0 °F 89% 30.00 in - Variable 3.5 mph - N/A   Partly Cloudy
9:52 AM 37.9 °F 27.9 °F 24.1 °F 57% 29.97 in - SW 19.6 mph 24.2 mph N/A   Overcast
10:52 AM 39.0 °F 30.6 °F 25.0 °F 57% 29.99 in 10.0 mi SSW 15.0 mph 23.0 mph N/A   Mostly Cloudy
11:52 AM 39.0 °F 30.6 °F 26.1 °F 60% 30.01 in 10.0 mi SSW 15.0 mph 25.3 mph N/A   Overcast
12:52 PM 39.9 °F 32.9 °F 27.0 °F 60% 29.99 in 10.0 mi SSW 11.5 mph 19.6 mph N/A   Overcast
1:52 PM 41.0 °F 35.2 °F 26.1 °F 55% 29.99 in 10.0 mi South 9.2 mph 19.6 mph N/A   Overcast
2:52 PM 41.0 °F 35.2 °F 27.0 °F 57% 30.01 in 10.0 mi South 9.2 mph - N/A   Overcast
3:52 PM 39.9 °F 33.4 °F 27.0 °F 60% 30.04 in 10.0 mi SSW 10.4 mph - N/A   Overcast
4:52 PM 39.0 °F 32.3 °F 27.0 °F 62% 30.06 in 10.0 mi SSW 10.4 mph - N/A   Overcast
5:52 PM 39.0 °F 33.4 °F 27.0 °F 62% 30.09 in 10.0 mi SW 8.1 mph - N/A   Overcast
6:52 PM 37.0 °F 30.4 °F 28.0 °F 70% 30.10 in 10.0 mi WSW 9.2 mph - N/A   Overcast
7:52 PM 37.9 °F 30.9 °F 26.1 °F 62% 30.11 in 10.0 mi SSW 10.4 mph - N/A   Partly Cloudy
8:52 PM 37.9 °F 30.0 °F 26.1 °F 62% 30.10 in 10.0 mi SW 12.7 mph 18.4 mph N/A   Clear
9:52 PM 37.0 °F 28.9 °F 25.0 °F 62% 30.05 in 10.0 mi SW 12.7 mph 25.3 mph N/A   Clear
10:52 PM 35.1 °F 29.3 °F 24.1 °F 64% 30.07 in 10.0 mi WNW 6.9 mph - N/A   Clear
11:52 PM 35.1 °F 30.1 °F 21.9 °F 59% 30.06 in 10.0 mi Variable 5.8 mph - N/A   Clear